Back to catalog

DRAGRACER 2

AUGURY

AliveSciencePO
NORAD 46955·PAYLOAD·🇺🇸 United States

Launched Nov 20, 2020 from Rocket Lab Launch Complex 1

Loading…

Next Passes (next 24 hours)

TLE

FreshSource: Space-Track

Epoch: Sep 14, 2026, 00:16 UTC

1 46955U 20085AC  26257.01117653  .00045574  00000-0  26931-3 0  9999
2 46955  97.5702 101.1712 0002395 292.3860  67.7152 15.78015331325847

Track DRAGRACER 2 in real time with AllMySat

Download on the App Store